Date String (YYYY-MM-DD hh:mm:ss) UTC,Instrument flags,Ambient pressure (hPa),Sample flow (lpm),Bypass flow (lpm),Sample temperature (°C),Ambient temperature (°C),ASC tube jacket temperature (°C),LED temperature (°C),Box temperature (°C),Sample RH (%),Span deviation,Mass concentration (μg/m³),Mass concentration (μg/m³),Mass concentration (μg/m³)
DateTimeUTC,F1_M11,P_M11,Q1_M11,Q2_M11,T1_M11,T2_M11,T3_M11,T4_M11,T5_M11,U1_M11,ZSPAN_M11,X0_M11,X2_M11,X1_M11
2021-11-05 03:00:00,,0824.5,5.00,0.00,30.3,29.4,00.0,39.4,32.0,10.7,0000.0,0008.32,0002.77,0001.94
2021-11-05 03:01:00,,0824.5,5.00,0.00,30.3,29.4,00.0,39.4,32.0,10.7,0000.0,0008.30,0002.74,0001.95
2021-11-05 03:02:00,,0824.5,5.01,0.00,30.3,29.4,00.0,39.3,32.0,10.6,0000.0,0008.30,0002.76,0001.95
2021-11-05 03:03:00,,0824.7,5.00,0.00,30.3,29.4,00.0,39.3,32.0,10.7,0000.0,0008.30,0002.76,0001.94
2021-11-05 03:04:00,,0824.4,5.01,0.00,30.3,29.4,00.0,39.3,32.0,10.6,0000.0,0007.86,0002.69,0001.95
2021-11-05 03:05:00,,0824.4,5.00,0.00,30.3,29.4,00.0,39.4,32.0,10.6,0000.0,0007.53,0002.65,0001.93
2021-11-05 03:06:00,,0824.4,5.00,0.00,30.3,29.4,00.0,39.4,32.0,10.6,0000.0,0006.05,0002.67,0001.91
2021-11-05 03:07:00,,0824.4,5.00,0.00,30.3,29.4,00.0,39.3,32.0,10.6,0000.0,0006.84,0002.70,0001.89
2021-11-05 03:08:00,,0824.5,5.01,0.00,30.3,29.4,00.0,39.3,32.0,10.6,0000.0,0006.53,0002.61,0001.85
2021-11-05 03:09:00,,0824.5,5.00,0.00,30.3,29.4,00.0,39.3,32.0,10.6,0000.0,0006.48,0002.55,0001.83
2021-11-05 03:10:00,,0824.4,5.00,0.00,30.3,29.4,00.0,39.3,32.0,10.6,0000.0,0006.61,0002.53,0001.80
2021-11-05 03:11:00,,0824.5,5.00,0.00,30.3,29.4,00.0,39.3,32.0,10.6,0000.0,0006.66,0002.48,0001.78
2021-11-05 03:12:00,,0824.5,5.00,0.00,30.3,29.4,00.0,39.3,32.0,10.6,0000.0,0006.85,0002.53,0001.79
2021-11-05 03:13:00,,0824.5,5.02,0.00,30.3,29.4,00.0,39.3,32.0,10.6,0000.0,0007.39,0002.58,0001.82
2021-11-05 03:14:00,,0824.4,4.99,0.00,30.3,29.4,00.0,39.3,32.0,10.6,0000.0,0008.17,0002.60,0001.84
2021-11-05 03:15:00,,0824.4,5.00,0.00,30.3,29.4,00.0,39.4,32.0,10.6,0000.0,0009.90,0002.67,0001.86
2021-11-05 03:16:00,,0824.4,5.00,0.00,30.3,29.4,00.0,39.4,32.0,10.6,0000.0,0010.12,0002.76,0001.90
2021-11-05 03:17:00,,0824.4,5.02,0.00,30.3,29.4,00.0,39.4,32.0,10.6,0000.0,0010.27,0002.76,0001.92
2021-11-05 03:18:00,,0824.4,4.98,0.00,30.3,29.4,00.0,39.3,32.0,10.6,0000.0,0009.97,0002.75,0001.94
2021-11-05 03:19:00,,0824.4,5.00,0.00,30.3,29.3,00.0,39.3,32.0,10.6,0000.0,0010.26,0002.84,0001.98
2021-11-05 03:20:00,,0824.4,5.01,0.00,30.3,29.3,00.0,39.3,32.0,10.6,0000.0,0010.75,0002.93,0002.03
2021-11-05 03:21:00,,0824.4,5.00,0.00,30.3,29.3,00.0,39.3,32.0,10.6,0000.0,0011.43,0003.02,0002.08
2021-11-05 03:22:00,,0824.4,5.00,0.00,30.3,29.3,00.0,39.3,32.0,10.5,0000.0,0012.41,0003.12,0002.13
2021-11-05 03:23:00,,0824.4,4.98,0.00,30.3,29.3,00.0,39.3,31.9,10.6,0000.0,0012.32,0003.12,0002.15
2021-11-05 03:24:00,,0824.4,5.00,0.00,30.3,29.3,00.0,39.3,31.9,10.5,0000.0,0011.94,0003.14,0002.15
2021-11-05 03:25:00,,0824.4,5.01,0.00,30.2,29.3,00.0,39.3,31.9,10.6,0000.0,0011.32,0003.13,0002.15
2021-11-05 03:26:00,,0824.4,5.00,0.00,30.2,29.3,00.0,39.3,31.9,10.7,0000.0,0009.56,0003.13,0002.16
2021-11-05 03:27:00,,0824.5,5.00,0.00,30.2,29.3,00.0,39.3,31.9,10.7,0000.0,0009.35,0003.16,0002.17
2021-11-05 03:28:00,,0824.5,5.00,0.00,30.2,29.3,00.0,39.3,31.9,10.6,0000.0,0009.02,0003.19,0002.22
2021-11-05 03:29:00,,0824.4,4.98,0.00,30.2,29.3,00.0,39.3,31.9,10.7,0000.0,0009.37,0003.22,0002.23
2021-11-05 03:30:00,,0824.5,5.01,0.00,30.2,29.3,00.0,39.3,31.9,10.7,0000.0,0009.88,0003.22,0002.23
2021-11-05 03:31:00,,0824.5,4.99,0.00,30.2,29.3,00.0,39.3,31.9,10.7,0000.0,0009.61,0003.21,0002.23
2021-11-05 03:32:00,,0824.4,4.99,0.00,30.2,29.3,00.0,39.3,31.9,10.7,0000.0,0009.45,0003.19,0002.22
2021-11-05 03:33:00,,0824.4,5.00,0.00,30.2,29.3,00.0,39.3,31.9,10.7,0000.0,0008.82,0003.16,0002.21
2021-11-05 03:34:00,,0824.5,5.01,0.00,30.2,29.3,00.0,39.3,31.9,11.0,0000.0,0008.97,0003.15,0002.21
2021-11-05 03:35:00,,0824.4,5.00,0.00,30.2,29.3,00.0,39.3,31.9,10.6,0000.0,0010.60,0003.11,0002.21
2021-11-05 03:36:00,,0824.4,5.00,0.00,30.2,29.3,00.0,39.3,31.9,11.0,0000.0,0011.15,0003.09,0002.22
2021-11-05 03:37:00,,0824.5,5.01,0.00,30.2,29.2,00.0,39.3,31.8,11.1,0000.0,0011.10,0003.10,0002.22
2021-11-05 03:38:00,,0824.4,5.01,0.00,30.2,29.2,00.0,39.3,31.8,10.7,0000.0,0010.96,0003.01,0002.20
2021-11-05 03:39:00,,0824.4,5.01,0.00,30.2,29.2,00.0,39.3,31.8,10.6,0000.0,0010.97,0002.97,0002.18
2021-11-05 03:40:00,,0824.4,5.00,0.00,30.2,29.2,00.0,39.3,31.8,10.6,0000.0,0010.79,0002.97,0002.19
2021-11-05 03:41:00,,0824.5,5.00,0.00,30.2,29.2,00.0,39.3,31.8,10.6,0000.0,0011.65,0002.98,0002.20
2021-11-05 03:42:00,,0824.4,4.99,0.00,30.1,29.2,00.0,39.3,31.8,10.4,0000.0,0012.26,0003.02,0002.19
2021-11-05 03:43:00,,0824.4,5.02,0.00,30.1,29.1,00.0,39.3,31.8,10.4,0000.0,0012.56,0003.04,0002.19
2021-11-05 03:44:00,,0824.4,5.01,0.00,30.1,29.1,00.0,39.3,31.8,10.3,0000.0,0012.96,0003.13,0002.20
2021-11-05 03:45:00,,0824.4,4.99,0.00,30.1,29.1,00.0,39.2,31.8,10.2,0000.0,0013.91,0003.18,0002.19
2021-11-05 03:46:00,,0824.4,5.00,0.00,30.1,29.1,00.0,39.2,31.7,10.2,0000.0,0014.32,0003.23,0002.18
2021-11-05 03:47:00,,0824.5,5.00,0.00,30.1,29.1,00.0,39.2,31.8,10.3,0000.0,0014.13,0003.27,0002.19
2021-11-05 03:48:00,,0824.4,4.99,0.00,30.1,29.1,00.0,39.2,31.7,10.6,0000.0,0014.48,0003.29,0002.18
2021-11-05 03:49:00,,0824.4,5.01,0.00,30.1,29.1,00.0,39.2,31.8,10.6,0000.0,0014.45,0003.27,0002.16
2021-11-05 03:50:00,,0824.4,4.99,0.00,30.1,29.1,00.0,39.2,31.8,11.0,0000.0,0014.65,0003.26,0002.14
2021-11-05 03:51:00,,0824.4,4.99,0.00,30.1,29.1,00.0,39.2,31.7,11.2,0000.0,0014.35,0003.22,0002.11
2021-11-05 03:52:00,,0824.4,5.00,0.00,30.1,29.1,00.0,39.2,31.7,11.2,0000.0,0013.30,0003.18,0002.09
2021-11-05 03:53:00,,0824.4,5.00,0.00,30.1,29.1,00.0,39.2,31.7,10.9,0000.0,0012.51,0003.13,0002.07
2021-11-05 03:54:00,,0824.5,5.01,0.00,30.1,29.0,00.0,39.2,31.7,10.8,0000.0,0011.68,0003.06,0002.04
2021-11-05 03:55:00,,0824.4,5.00,0.00,30.1,29.0,00.0,39.2,31.7,11.0,0000.0,0011.35,0002.96,0002.01
2021-11-05 03:56:00,,0824.4,4.99,0.00,30.1,29.0,00.0,39.2,31.7,11.1,0000.0,0010.73,0002.85,0001.98
2021-11-05 03:57:00,,0824.5,5.00,0.00,30.1,29.0,00.0,39.2,31.7,11.2,0000.0,0008.51,0002.72,0001.95
2021-11-05 03:58:00,,0824.5,5.01,0.00,30.0,29.0,00.0,39.2,31.7,11.3,0000.0,0007.95,0002.63,0001.92
2021-11-05 03:59:00,,0824.6,4.99,0.00,30.0,29.0,00.0,39.2,31.7,11.1,0000.0,0007.66,0002.53,0001.90
